Torna al catalogo

CENTISPACE-1 S1

AttivoNavigazioneSSO
NORAD 43636·PAYLOAD·🇨🇳 China

Lanciato Sep 29, 2018 da Jiuquan Satellite Launch Center

Loading…

Prossimi Passaggi (prossime 24 ore)

TLE

AggiornatoSource: Space-Track

Epoca: Sep 14, 2026, 13:03 UTC

1 43636U 18075A   26257.54380237  .00000239  00000-0  58815-4 0  9992
2 43636  97.8708 276.8345 0008205 190.4742 169.6290 14.60068519423596

Traccia CENTISPACE-1 S1 in tempo reale con AllMySat

Download on the App Store